Details From SAZM - Mar Del Plata Brig Gen D Bartolome
To SABE - Aeroparque Jorge Newbery
Flight Number -
Tags decoded
Created
Modified
Stats Distance 210 nm / 389 km
Max Altitude 0 ft / 0 m
Waypoints 4
Social Downloads 2
Likes 0
Share VATSIM

Download

Looking for another format? Having issues loading an existing format? Contact us
Advertisement - Login to hide

Notes

Requested: SAZM VOTRA UW29 GBE SABE Unmatched points: UW29

Route

SAZM VOTRA GBE SABE

ID Type Via Altitude Latitude Longitude Leg Dist Tot Dist Heading (true) Name
O SAZM APT - 0 ft / 0 m -37.93419˚ -57.57340˚ - 0 nm - Mar Del Plata Brig Gen D Bartolome
VOTRA FIX - 0 ft / 0 m -37.08306˚ -58.02056˚ 55 nm 55 nm 337° / 338° -
GBE VOR - 0 ft / 0 m -35.75111˚ -58.46389˚ 82 nm 138 nm 345° / 345° GENERAL BELGRANO VOR
O SABE APT - 0 ft / 0 m -34.55941˚ -58.41575˚ 71 nm 209 nm 2° / 2° Aeroparque Jorge Newbery

Altitude Profile

Advertisement - Login to hide

Weather


0- 5 10 15 20 25 30 35+ Temperature / ° C

Clouds and Precipitation
Forecast for 2018-05-24 00:00 UTC. Updated an hour ago

Ground ~20,000 ft ~40,000 ft Winds

SAZM

Details ICAO SAZM (MDQ)
Name Mar Del Plata Brig Gen D Bartolome
Region Argentina
Timezone America/Argentina/Buenos_Aires (UTC-3.0)
Stats Elevation 71 ft / 22 m (AMSL)
Location -37.934190° -57.573395°
Runways 1
Magnetic Variation 7.645° W

METAR

SAZM 240000Z 29003KT CAVOK 07/05 Q1022

Decode

TAF

TAF SAZM 232300Z 2400/2424 VRB03KT CAVOK TX17/2418Z TN02/2410Z BECMG 2406/2408 6000 NSC BECMG 2413/2415 34010KT CAVOK

Decode

Departure Runways

ID Width Length Bearing (true) Bearing (mag) Surface Threshold Offset Overrun Length
13 197 ft / 60 m 7,204 ft / 2,196 m 122.66° 130.30° Asphalt 0 ft / 0 m 196 ft / 60 m
31 197 ft / 60 m 7,204 ft / 2,196 m 302.65° 310.29° Asphalt 0 ft / 0 m 0 ft / 0 m

SABE

Details ICAO SABE (AEP)
Name Aeroparque Jorge Newbery
Region Argentina
Timezone Unknown (UTC+0.0)
Stats Elevation 17 ft / 5 m (AMSL)
Location -34.559414° -58.415749°
Runways 1
Magnetic Variation 9.053° W

METAR

SABE 240000Z 29004KT CAVOK 16/08 Q1023 NOSIG

Decode

TAF

TAF SABE 232300Z 2400/2424 36005KT CAVOK TX21/2418Z TN12/2410Z BECMG 2416/2418 34010KT

Decode

Destination Runways

ID Width Length Bearing (true) Bearing (mag) Surface Threshold Offset Overrun Length
13 131 ft / 40 m 6,882 ft / 2,098 m 123.87° 132.92° Concrete 0 ft / 0 m 791 ft / 241 m
31 131 ft / 40 m 6,882 ft / 2,098 m 303.86° 312.91° Concrete 991 ft / 302 m 0 ft / 0 m

Approach Navaids

Runway Type Ident Frequency Range Bearing (true) Bearing (mag) Slope Elevation
13 Localiser AE 109.50 MHz 18 nm / 33 km 123.95° 133.01° - 17 ft / 5 m (AMSL)
13 Glidescope AE 109.50 MHz 10 nm / 19 km 124.47° 133.52° 3.00° 17 ft / 5 m (AMSL)
13 DME AE 109.50 MHz 18 nm / 33 km - - - 17 ft / 5 m (AMSL)

Popular Alternatives